Washington, VA

2:58 PM EDT on June 23, 2017 (GMT -0400)
Ronald Reagan Washington National

Weather History for KDCA - April, 2008

Change the Weather History Date:

Tuesday, April 1, 2008

  Actual Average Record
Temperature  
Mean Temperature 64 °F 52 °F  
Max Temperature 76 °F 62 °F 88 °F (1978)
Min Temperature 51 °F 42 °F 15 °F (1923)
Degree Days  
Heating Degree Days 1 13  
Month to date heating degree days 1 13  
Since 1 July heating degree days 3193 3689  
Cooling Degree Days 0 0  
Month to date cooling degree days 0 0  
Year to date cooling degree days 0 2  
Growing Degree Days 13 (Base 50)    
Moisture  
Dew Point 54 °F    
Average Humidity 74    
Maximum Humidity 96    
Minimum Humidity 52    
Precipitation  
Precipitation 0.10 in 0.11 in 1.67 in (1948)
Month to date precipitation 0.10 0.11  
Year to date precipitation 8.44 9.02  
Snow  
Snow 0.00 in 0.00 in 5.50 in (1924)
Month to date snowfall 0.0 0.0  
Since 1 July snowfall 4.9 15.4  
Snow Depth 0.00 in    
Sea Level Pressure  
Sea Level Pressure 30.02 in    
Wind  
Wind Speed 14 mph (SSW)    
Max Wind Speed 29 mph    
Max Gust Speed 38 mph    
Visibility 6 miles    
Events Rain    
T = Trace of Precipitation, MM = Missing Value Source: NWS Daily Summary

Daily Weather History Graph

Daily Weather History Graph

Search for Another Location

Airport or City:

Trip Planner

Search our weather history database for the weather conditions in past years. The results will help you decide how hot, cold, wet, or windy it might be!

Date:

Astronomy

Apr. 01, 2008 Rise Set
Actual Time 6:52 AM EDT 7:32 PM EDT
Civil Twilight 6:25 AM EDT 7:59 PM EDT
Nautical Twilight 5:53 AM EDT 8:30 PM EDT
Astronomical Twilight 5:21 AM EDT 9:03 PM EDT
Moon 4:24 AM EDT (4/1) 2:40 PM EDT (4/1)
Length of Visible Light 13h 33m
Length of Day
12h 40m
Waning Crescent, 24% of the Moon is Illuminated
Apr 1
Waning Crescent
Apr 5
New
Apr 12
First Quarter
Apr 20
Full
Apr 28
Last Quarter

Hourly Weather History & Observations

Time (EDT) Temp. Dew Point Humidity Pressure Visibility Wind Dir Wind Speed Gust Speed Precip Events Conditions
12:41 AM 51.8 °F 48.2 °F 88% 30.20 in 4.0 mi South 4.6 mph - 0.01 in   Light Drizzle
12:52 AM 51.1 °F 48.9 °F 92% 30.19 in 3.0 mi South 5.8 mph - 0.01 in   Light Drizzle
1:43 AM 51.8 °F 50.0 °F 94% 30.17 in 3.0 mi SSW 5.8 mph - 0.00 in   Light Drizzle
1:52 AM 52.0 °F 50.0 °F 93% 30.17 in 3.0 mi SSW 6.9 mph - 0.01 in   Light Drizzle
2:11 AM 51.8 °F 50.0 °F 94% 30.16 in 2.5 mi SSW 6.9 mph - 0.00 in Rain Light Rain
2:45 AM 51.8 °F 50.0 °F 94% 30.14 in 5.0 mi South 5.8 mph - 0.01 in Rain Light Rain
2:52 AM 52.0 °F 50.0 °F 93% 30.14 in 5.0 mi South 6.9 mph - 0.01 in Rain Light Rain
3:20 AM 51.8 °F 50.0 °F 94% 30.13 in 5.0 mi South 6.9 mph - 0.00 in   Overcast
3:52 AM 52.0 °F 51.1 °F 97% 30.12 in 4.0 mi South 3.5 mph - 0.00 in Rain Light Rain
4:33 AM 53.6 °F 51.8 °F 94% 30.09 in 4.0 mi South 6.9 mph - 0.00 in   Light Drizzle
4:50 AM 53.6 °F 51.8 °F 94% 30.09 in 2.5 mi SSW 5.8 mph - 0.01 in   Light Drizzle
4:52 AM 53.1 °F 52.0 °F 96% 30.09 in 2.5 mi South 5.8 mph - 0.01 in Rain Light Rain
5:20 AM 53.6 °F 51.8 °F 94% 30.08 in 2.5 mi SW 8.1 mph - 0.01 in Rain Light Rain
5:40 AM 53.6 °F 53.6 °F 100% 30.07 in 3.0 mi South 4.6 mph - 0.02 in Rain Light Rain
5:52 AM 54.0 °F 53.1 °F 97% 30.07 in 6.0 mi South 6.9 mph - 0.02 in   Light Drizzle
6:35 AM 53.6 °F 51.8 °F 94% 30.06 in 2.0 mi South 5.8 mph - 0.00 in   Light Drizzle
6:52 AM 53.1 °F 52.0 °F 96% 30.06 in 2.0 mi South 8.1 mph - 0.00 in   Light Drizzle
7:52 AM 55.9 °F 54.0 °F 93% 30.05 in 2.0 mi SSW 6.9 mph - 0.01 in   Light Drizzle
8:26 AM 57.2 °F 55.4 °F 94% 30.05 in 1.8 mi WSW 10.4 mph - 0.01 in   Light Drizzle
8:35 AM 57.2 °F 55.4 °F 94% 30.04 in 3.0 mi SW 11.5 mph - 0.01 in   Light Drizzle
8:45 AM 57.2 °F 55.4 °F 94% 30.05 in 5.0 mi SW 12.7 mph - 0.01 in   Light Drizzle
8:52 AM 57.9 °F 55.9 °F 93% 30.05 in 3.0 mi SW 12.7 mph - 0.01 in   Light Drizzle
9:38 AM 59.0 °F 55.4 °F 88% 30.04 in 4.0 mi SSW 17.3 mph 21.9 mph 0.01 in Rain Light Rain
9:46 AM 60.8 °F 57.2 °F 88% 30.03 in 5.0 mi SSW 13.8 mph - 0.01 in Rain Light Rain
9:52 AM 60.1 °F 57.0 °F 90% 30.03 in 10.0 mi South 15.0 mph - 0.02 in   Mostly Cloudy
9:58 AM 60.8 °F 57.2 °F 88% 30.03 in 10.0 mi South 17.3 mph - N/A   Overcast
10:52 AM 61.0 °F 57.0 °F 87% 30.01 in 10.0 mi SSW 18.4 mph - 0.00 in   Overcast
11:09 AM 62.6 °F 57.2 °F 82% 30.00 in 10.0 mi SSW 16.1 mph - 0.01 in   Overcast
11:33 AM 62.6 °F 57.2 °F 82% 29.99 in 10.0 mi SSW 19.6 mph 28.8 mph 0.01 in   Overcast
11:52 AM 63.0 °F 57.9 °F 84% 29.98 in 10.0 mi SSW 18.4 mph 28.8 mph N/A   Overcast
12:08 PM 64.4 °F 59.0 °F 83% 29.96 in 10.0 mi SSW 18.4 mph 29.9 mph N/A   Overcast
12:33 PM 66.2 °F 59.0 °F 78% 29.95 in 10.0 mi South 19.6 mph 27.6 mph N/A   Overcast
12:52 PM 68.0 °F 59.0 °F 73% 29.94 in 10.0 mi SSW 20.7 mph 27.6 mph N/A   Overcast
1:13 PM 69.8 °F 59.0 °F 68% 29.93 in 10.0 mi SSW 23.0 mph 28.8 mph N/A   Overcast
1:52 PM 70.0 °F 57.9 °F 65% 29.92 in 10.0 mi SSW 18.4 mph 26.5 mph N/A   Overcast
2:52 PM 73.9 °F 57.9 °F 57% 29.89 in 10.0 mi SSW 21.9 mph 32.2 mph N/A   Mostly Cloudy
3:52 PM 75.0 °F 57.0 °F 53% 29.87 in 10.0 mi SSW 18.4 mph 25.3 mph N/A   Mostly Cloudy
4:52 PM 75.0 °F 57.0 °F 53% 29.85 in 10.0 mi South 17.3 mph 29.9 mph N/A   Scattered Clouds
5:52 PM 73.9 °F 57.0 °F 55% 29.84 in 10.0 mi SSW 17.3 mph 33.4 mph N/A   Scattered Clouds
6:52 PM 73.0 °F 55.9 °F 55% 29.85 in 10.0 mi SSW 17.3 mph 25.3 mph N/A   Mostly Cloudy
7:52 PM 72.0 °F 55.9 °F 57% 29.86 in 10.0 mi SW 13.8 mph - N/A   Scattered Clouds
8:52 PM 71.1 °F 57.0 °F 61% 29.88 in 10.0 mi SSW 11.5 mph - N/A   Scattered Clouds
9:52 PM 70.0 °F 57.9 °F 65% 29.92 in 10.0 mi SW 9.2 mph - N/A   Overcast
10:52 PM 68.0 °F 57.0 °F 68% 29.96 in 10.0 mi WNW 10.4 mph - 0.01 in   Mostly Cloudy
11:52 PM 64.0 °F 46.0 °F 52% 30.01 in 10.0 mi NW 23.0 mph 34.5 mph N/A   Scattered Clouds